Retour au catalogue

COSMOS 397 DEB *

ActifLEO
NORAD 5720·DEBRIS·🇷🇺 Russia

Lancé Feb 25, 1971 depuis Baikonur Cosmodrome

Loading…

Prochains Passages (prochaines 24 heures)

TLE

FraisSource: Space-Track

Époque: Sep 13, 2026, 09:32 UTC

1 05720U 71015CB  26256.39749960  .00000040  00000-0  68706-4 0  9991
2 05720  66.7281  33.8243 0110712 265.1689  93.6749 14.06598668773848

Suivez COSMOS 397 DEB * en temps réel avec AllMySat

Download on the App Store